World > North America > United States > Texas

Hourly Liberty City, TX Regional Weather

Feedback E-mail the Weather

Quick WX

Liberty City, TX Weather Maps

°F °C°F °C
Liberty City Weather Map
UTC Time: 6/25/2022, 19:46
Your Time:

Liberty City, TX Regional Weather

Expires:202206252000;;178379
ASUS44 KFWD 251915
RWRTX 
NORTH TEXAS HOURLY WEATHER ROUNDUP
NATIONAL WEATHER SERVICE FORT WORTH TX
200 PM CDT SAT JUN 25 2022

NOTE: "FAIR" INDICATES FEW OR NO CLOUDS BELOW 12,000 FEET WITH NO
SIGNIFICANT WEATHER AND/OR OBSTRUCTIONS TO VISIBILITY.


TXZ095>097-106>112-122>126-135>138-148>153-164>167-252000-
EAST TEXAS
  
CITY           SKY/WX    TMP DP  RH WIND       PRES   REMARKS
PARIS          FAIR      98  69  38 SW8       29.98F HX 104           
SULPHUR SPRNGS FAIR      97  59  28 CALM      30.00F HX  97           
MOUNT PLEASANT FAIR      98  66  35 S6        29.97F HX 101           
GILMER         FAIR      96  55  24 SE5       29.99F HX  94           
MINEOLA        FAIR      97  59  28 SW7       29.98F HX  96           
TYLER          FAIR      98  61  29 W8        29.98F HX  98           
LONGVIEW       FAIR      98  62  30 SW8       29.97F HX  99           
MARSHALL       FAIR      95  62  32 S9        30.00F HX  95           
ATHENS         FAIR      97  61  30 S8        29.97F HX  97           
PALESTINE      FAIR      95  59  30 VRB5G14   29.98F HX  94           
JACKSONVILLE   FAIR      96  57  27 S12       30.02F HX  95           
HENDERSON      FAIR      99  44  15 CALM      30.00F HX  95           
NACOGDOCHES    FAIR      95  62  33 VRB5      30.00F HX  96           
LUFKIN         FAIR      97  65  34 VRB3      29.98F HX  99           
$$

SUPPLEMENTAL OBSERVATIONS (NWS FORT WORTH AREA)
  
CITY           SKY/WX    TMP DP  RH WIND       PRES   REMARKS
CADDO GRASSLND   N/A     97  66  36 SW7         N/A  HX 100           
LBJ GRASSLAND    N/A    100  61  27 S7          N/A  HX 101           
POSSUM KINGDOM   N/A    102  57  22 SE6G14      N/A  HX 101           
GRANBURY         N/A    102  52  18 E9          N/A  HX 100           
COMANCHE         N/A    100  55  22 SW8G16      N/A  HX  99           
MCGREGOR         N/A     99  57  25 S10G18      N/A  HX  97           
TEMPLE           N/A     97  63  32 S8G20       N/A  HX  98           
LAKE LIMESTONE   N/A     97  70  41 S7          N/A  HX 103           
$$

SUPPLEMENTAL OBSERVATIONS (NWS NORMAN AREA)
  
CITY           SKY/WX    TMP DP  RH WIND       PRES   REMARKS
GOODLETT         N/A    104  52  18 S3        29.95F HX 101           
ODELL            N/A    102  57  22 SW5       29.96F HX 101           
CROWELL          N/A    104  53  18 SW13      29.96F HX 102           
KNOX CITY        N/A    103  54  20 S10       29.96F HX 101           
SEYMOUR          N/A    103  55  19 S7        29.96S HX 102           
MILLERS CREEK    N/A    102  57  22 S5          N/A  HX 101           
$$

SUPPLEMENTAL OBSERVATIONS (NWS SAN ANGELO AREA)
  
CITY           SKY/WX    TMP DP  RH WIND       PRES   REMARKS
WEINERT          N/A    101  56  22 S6        29.97F HX 100           
HASKELL          N/A    100  61  27 S10       29.97F HX 100           
THROCKMORTON     N/A    101  62  27 E5        29.97F HX 102           
STAMFORD         N/A     98  60  28 CALM      29.98F HX  99           
CLYDE            N/A     98  58  26 S3        30.03F HX  97           
HAMBY            N/A     99  57  25 SW5G16      N/A  HX  97           
IVIE RESERVOIR   N/A     99  55  23 SW6G16      N/A  HX  97           
COLORADO BEND    N/A    100  55  22 SE6G18      N/A  HX  99           
$$

SUPPLEMENTAL OBSERVATIONS (NWS SHREVEPORT AREA)
  
CITY           SKY/WX    TMP DP  RH WIND       PRES   REMARKS
TEXARKANA        N/A     99  72  41 SW3         N/A  HX 107           
CADDO LAKE       N/A    100  66  32 NW1         N/A  HX 104           
LUFKIN           N/A     97  61  30 MISG        N/A  HX  97           
N SABINE NF      N/A     99  63  30 MISG        N/A  HX 100           
$$

SUPPLEMENTAL OBSERVATIONS ARE A COLLECTION OF AUTOMATED INSTRUMENTS
THAT ARE MAINTAINED BY A VARIETY OF FEDERAL AND STATE AGENCIES. 
CERTAIN ELEMENTS...SUCH AS HUMIDITY VALUES AND SUSTAINED WIND 
SPEEDS...MAY BE APPROXIMATED.

  

SKY/WX - Weather  TMP - Temperature  DP - Dew Point  RH - Humidity
WIND - Wind Direction/Speed PRES - Barometric Pressure VSB - Visibility
WCI - Wind Chill Index E13G22 Wind - East Wind 13 mph/Gusts of 22 mph

Trending Headlines

Liberty City Radar Loop



Liberty City Quick Facts


National Two Day Weather Forecast


E-mail the Liberty City Weather Forecast

Voice your opinion or tell us about page issues...